Rechercher aéroport 
image banner adimage banner ad
image banner ad

DAUA - Adrar / Touat Cheikh Sidi Mohamed Belkebir

Situé à Adrar, Algeria

ICAO - DAUA, IATA - AZR

Données fournies par Airmate  

Information générale

Coordonnées: N27°50'21" W0°11'7"
Élévation : 918 feet MSL.
 
Voir autres Aéroports à Adrar Province

Données opérationnelles

Accessible au public
Heure actuelle UTC:
Heure actuelle locale:
Météo
METAR: DAUA 301900Z 03013KT CAVOK 26/02 Q1019
TAF: TAF DAUA 301700Z 3018/3118 06011KT CAVOK PROB30 TEMPO 3020/3024 06022KT 5000 DRSA
Voir NOTAMs / SUP AIP / TFR affectant cet aéroport [VIEW]
Fréquences de communication: [VIEW]

Pistes:

Identifiant RWYQFULongueur (ft)Largeur (ft)SurfaceLDA (ft)
0440°9843148ASP
22220°9843148

Coordonnées de l'aéroport

Adresse: Adrar Algeria

Vue satellite de DAUA